Regional Weather Roundup
Issued by NWS Sterling, VA

Home | Current Version | Previous Version | Graphics & Text | Print | Product List | Glossary On
Versions: 1 2 3 4 5 6 7 8 9 10 11 12 13 14 15 16 17 18 19 20 21 22 23 24 25 26 27 28 29 30 31 32 33 34 35 36 37 38 39 40 41 42 43 44 45 46 47 48 49 50
430
ASUS41 KLWX 290911
RWRLWX

REGIONAL WEATHER ROUNDUP
NATIONAL WEATHER SERVICE BALTIMORE MD/WASHINGTON DC
500 AM EDT THU JUN 29 2017

Note: "FAIR" indicates few or no clouds below 12,000 feet
with no significant weather and/or obstructions to visibility.
 TC=TEMPERATURE CELSIUS

 * =Non NWS site. Station does not report precipitation (e.g. rain,
    snow, etc.), thunder, or fog.

DCZ001-MDZ009-015-VAZ040>042-051-053>054-291000-
WASHINGTON METRO

CITY           SKY/WX    TMP DP  RH WIND       PRES   REMARKS
WASHINGTON NAT MOCLDY    67  59  75 S8        30.16S
DULLES         CLOUDY    63  54  72 S8        30.14S
ANDREWS AFB    MOCLDY    63  56  79 S5        30.15S
FT BELVOIR     CLOUDY    60  57  89 CALM      30.16S
QUANTICO       PTCLDY    66  59  78 SW7       30.17S
COLLEGE PARK*  CLOUDY    66  56  72 S3        30.15S
LEESBURG*      CLOUDY    63  57  82 S3        30.15S
MANASSAS*      PTCLDY    57  56  96 CALM      30.15F
GAITHERSBURG*  MOCLDY    64  55  72 S7        30.15S

$$

MDZ006>007-011-014-291000-
BALTIMORE METRO

CITY           SKY/WX    TMP DP  RH WIND       PRES   REMARKS
BWI AIRPORT    MOCLDY    63  58  83 S5        30.14F
MD SCIENCE CTR   N/A     68  58  70 MISG      30.15S
MARTIN STATE   MOCLDY    68  59  73 S9        30.16S
ANNAPOLIS      PTCLDY    65  59  81 CALM      30.15S
FORT MEADE*    CLOUDY    55  54  94 S3        30.18R

$$

MDZ012-015-019>023-291000-
MARYLAND EASTERN SHORE

CITY           SKY/WX    TMP DP  RH WIND       PRES   REMARKS
OCEAN CITY     CLEAR     58  56  93 CALM      30.20S
SALISBURY      CLOUDY    61  58  90 S5        30.19S
BAY BRIDGE AP* MOCLDY    70  59  68 S7        30.16S
CAMBRIDGE*     CLEAR     64  59  82 S5        30.17F
EASTON*        MOCLDY    69  58  68 SW6       30.20F

$$

MDZ017>025-291000-
SOUTHERN MARYLAND

CITY           SKY/WX    TMP DP  RH WIND       PRES   REMARKS
PATUXENT RIVER CLEAR     67  60  78 SW10      30.16F
ST INIGOES     PTCLDY    69  62  78 S7        30.17S
LEONARDTOWN*   CLEAR     64  59  82 S5        30.18F

$$

MDZ003>005-291000-
NORTH CENTRAL MARYLAND

CITY           SKY/WX    TMP DP  RH WIND       PRES   REMARKS
FREDERICK*     PTCLDY    59  55  88 CALM      30.15F
HAGERSTOWN APT PTCLDY    65  54  67 S8        30.12S
WESTMINSTER*   CLOUDY    64  57  77 S5        30.14S

$$

MDZ501>502-291000-
WESTERN MARYLAND

CITY           SKY/WX    TMP DP  RH WIND       PRES   REMARKS
OAKLAND*       CLOUDY    57  50  77 SW8       30.04R
CUMBERLAND*    CLOUDY    55  55 100 N3        30.16S

$$

VAZ025>031-291000-
SHENANDOAH VALLEY

CITY           SKY/WX    TMP DP  RH WIND       PRES   REMARKS
WINCHESTER*    PTCLDY    59  52  77 S3        30.12S
FRONT ROYAL*   PTCLDY    63  54  72 SW5       30.12F
LURAY*         CLOUDY    61  54  77 S5        30.15S
NEW MARKET*    PTCLDY    62  53  71 W5        30.15S
STAUNTON*      CLOUDY    53  51  92 CALM      30.20S
WAYNESBORO*    CLEAR     58  55  87 CALM      30.19R

$$

WVZ021-048>050-054>055-291000-
EASTERN WEST VIRGINIA PANHANDLE

CITY           SKY/WX    TMP DP  RH WIND       PRES   REMARKS
MARTINSBURG    CLOUDY    61  53  75 S7        30.11F
PETERSBURG*    CLOUDY    55  53  95 W3        30.14R

$$

VAZ036>039-050-291000-
CENTRAL FOOTHILLS

CITY           SKY/WX    TMP DP  RH WIND       PRES   REMARKS
CHARLOTTESVILL CLOUDY    62  57  83 SW3       30.16S
CULPEPER*      CLOUDY    56  55  97 CALM      30.16S
ORANGE*        CLOUDY    55  54  94 CALM      30.16S
GORDONSVILLE*  CLOUDY    55  55  99 CALM      30.16S
WARRENTON*     PTCLDY    56  52  85 CALM      30.15S

$$

VAZ055>057-291000-
NORTH AND CENTRAL PIEDMONT

CITY           SKY/WX    TMP DP  RH WIND       PRES   REMARKS
FREDERICKSBRG* CLEAR     60  58  95 CALM      30.16S
STAFFORD*      CLOUDY    54  54 100 CALM      30.20S

$$

NCZ024-NYZ072-PAZ021-071-VAZ022-071-291000-
OTHER REGIONAL OBSERVATIONS

CITY           SKY/WX    TMP DP  RH WIND       PRES   REMARKS
NEW YORK CITY  CLOUDY    69  55  60 VRB5      30.18S
PHILADELPHIA   MOCLDY    67  57  70 S8        30.16R
PITTSBURGH     CLOUDY    60  52  74 S5        30.07R
ROANOKE        CLOUDY    60  57  89 CALM      30.21R
RICHMOND       PTCLDY    62  60  93 CALM      30.18S
RALEIGH        CLOUDY    64  57  78 CALM      30.20R

$$

ANZ530>537-291000-
MARINE OBSERVATIONS

STATION/POSITION TIME  TEMP    WIND        PRES
                       AIR SEA DIR/SP/G
                 (UTC) (F)     (DEG/KT/KT) (MB)
THOMAS PT LIGHT  0900   70 75  200/ 17/ 18   N/A
BALT KEY BRIDGE  0848   66     200/  7/  9 1020.6R
COVE POINT       0848   68     220/ 13/ 15 1021.9F
LEWISETTA        0848   67 77  230/  9/ 11 1021.5F
SOLOMONS ISLAND  0848   69 78  210/ 14/ 17   N/A
PINEY POINT      0848          230/ 14/ 16   N/A

$$





USA.gov is the U.S. government's official web portal to all federal, state and local government web resources and services.